Carroll, IA

12:23 PM CST on January 23, 2018 (GMT -0600)
Neu

Weather History for KCIN - December, 2013

Change the Weather History Date:

Thursday, December 26, 2013

  Actual Average Record
Temperature  
Mean Temperature 32 °F -  
Max Temperature 42 °F 29 °F 57 °F (1959)
Min Temperature 23 °F 9 °F -17 °F (1990)
Degree Days  
Heating Degree Days 32    
Moisture  
Dew Point 24 °F    
Average Humidity 79    
Maximum Humidity 93    
Minimum Humidity 57    
Precipitation  
Precipitation 0.00 in - - ()
Sea Level Pressure  
Sea Level Pressure 30.12 in    
Wind  
Wind Speed 14 mph (WSW)    
Max Wind Speed 18 mph    
Max Gust Speed 24 mph    
Visibility 10 miles    
Events      
Averages and records for this station are not official NWS values.
T = Trace of Precipitation, MM = Missing Value Source: NWS Daily Summary

Daily Weather History Graph

Daily Weather History Graph

Search for Another Location

Airport or City:

Trip Planner

Search our weather history database for the weather conditions in past years. The results will help you decide how hot, cold, wet, or windy it might be!

Date:

Astronomy

Dec. 26, 2013 Rise Set
Actual Time 7:46 AM CST 4:53 PM CST
Civil Twilight 7:14 AM CST 5:25 PM CST
Nautical Twilight 6:39 AM CST 6:00 PM CST
Astronomical Twilight 6:05 AM CST 6:34 PM CST
Moon 1:11 AM CST (12/26) 12:33 PM CST (12/26)
Length of Visible Light 10h 11m
Length of Day
9h 07m
Last Quarter, 38% of the Moon is Illuminated
Dec 26
Last Quarter
Jan 1
New
Jan 7
First Quarter
Jan 15
Full
Jan 23
Last Quarter

Hourly Weather History & Observations

Time (CST) Temp. Windchill Dew Point Humidity Pressure Visibility Wind Dir Wind Speed Gust Speed Precip Events Conditions
12:15 AM 24.8 °F 11.5 °F 19.4 °F 80% 30.18 in 10.0 mi WSW 17.3 mph - N/A   Overcast
12:35 AM 24.8 °F 11.1 °F 21.2 °F 86% 30.17 in 10.0 mi WSW 18.4 mph - N/A   Overcast
12:55 AM 24.8 °F 11.5 °F 21.2 °F 86% 30.16 in 10.0 mi WSW 17.3 mph - N/A   Overcast
1:15 AM 24.8 °F 11.5 °F 23.0 °F 93% 30.15 in 10.0 mi SW 17.3 mph - N/A   Overcast
1:35 AM 24.8 °F 11.9 °F 21.2 °F 86% 30.15 in 10.0 mi SW 16.1 mph - N/A   Overcast
1:55 AM 24.8 °F 11.9 °F 21.2 °F 86% 30.13 in 10.0 mi SW 16.1 mph - N/A   Overcast
2:15 AM 23.0 °F 10.1 °F 21.2 °F 93% 30.14 in 10.0 mi SW 15.0 mph - N/A   Mostly Cloudy
2:35 AM 24.8 °F 11.9 °F 21.2 °F 86% 30.14 in 10.0 mi WSW 16.1 mph - N/A   Partly Cloudy
2:55 AM 24.8 °F 12.4 °F 21.2 °F 86% 30.14 in 10.0 mi WSW 15.0 mph 20.7 mph N/A   Mostly Cloudy
3:35 AM 24.8 °F 11.1 °F 21.2 °F 86% 30.14 in 10.0 mi SW 18.4 mph - N/A   Overcast
3:55 AM 24.8 °F 11.1 °F 21.2 °F 86% 30.12 in 10.0 mi SW 18.4 mph 24.2 mph N/A   Overcast
4:15 AM 24.8 °F 11.1 °F 21.2 °F 86% 30.12 in 10.0 mi SW 18.4 mph - N/A   Mostly Cloudy
4:35 AM 24.8 °F 11.5 °F 21.2 °F 86% 30.12 in 10.0 mi SW 17.3 mph 23.0 mph N/A   Mostly Cloudy
4:55 AM 24.8 °F 11.5 °F 21.2 °F 86% 30.10 in 10.0 mi SW 17.3 mph 24.2 mph N/A   Scattered Clouds
5:15 AM 24.8 °F 11.1 °F 21.2 °F 86% 30.10 in 10.0 mi SW 18.4 mph 24.2 mph N/A   Mostly Cloudy
5:35 AM 24.8 °F 11.1 °F 21.2 °F 86% 30.09 in 10.0 mi SW 18.4 mph - N/A   Mostly Cloudy
5:55 AM 24.8 °F 11.5 °F 21.2 °F 86% 30.09 in 10.0 mi SW 17.3 mph - N/A   Overcast
6:15 AM 24.8 °F 11.5 °F 21.2 °F 86% 30.08 in 10.0 mi SSW 17.3 mph - N/A   Overcast
6:35 AM 26.6 °F 13.4 °F 21.2 °F 80% 30.08 in 10.0 mi SSW 18.4 mph - N/A   Overcast
6:55 AM 26.6 °F 14.3 °F 21.2 °F 80% 30.08 in 10.0 mi SSW 16.1 mph - N/A   Overcast
7:15 AM 26.6 °F 14.7 °F 23.0 °F 86% 30.08 in 10.0 mi SW 15.0 mph - N/A   Overcast
7:35 AM 26.6 °F 15.2 °F 23.0 °F 86% 30.08 in 10.0 mi SW 13.8 mph - N/A   Overcast
7:55 AM 28.4 °F 17.0 °F 23.0 °F 80% 30.08 in 10.0 mi SW 15.0 mph - N/A   Overcast
8:15 AM 28.4 °F 16.6 °F 23.0 °F 80% 30.07 in 10.0 mi SW 16.1 mph 23.0 mph N/A   Overcast
8:35 AM 28.4 °F 15.8 °F 23.0 °F 80% 30.07 in 10.0 mi SW 18.4 mph - N/A   Mostly Cloudy
8:55 AM 28.4 °F 17.5 °F 23.0 °F 80% 30.08 in 10.0 mi SW 13.8 mph - N/A   Mostly Cloudy
9:15 AM 28.4 °F 19.1 °F 24.8 °F 86% 30.08 in 10.0 mi SW 10.4 mph - N/A   Mostly Cloudy
9:35 AM 30.2 °F 19.8 °F 24.8 °F 80% 30.09 in 10.0 mi WSW 13.8 mph - N/A   Mostly Cloudy
9:55 AM 30.2 °F 21.3 °F 24.8 °F 80% 30.10 in 10.0 mi WSW 10.4 mph 16.1 mph N/A   Scattered Clouds
10:15 AM 30.2 °F 21.3 °F 24.8 °F 80% 30.11 in 10.0 mi West 10.4 mph 16.1 mph N/A   Clear
10:35 AM 30.2 °F 20.8 °F 24.8 °F 80% 30.11 in 10.0 mi West 11.5 mph - N/A   Partly Cloudy
10:55 AM 32.0 °F 24.2 °F 24.8 °F 75% 30.11 in 10.0 mi West 9.2 mph - N/A   Scattered Clouds
11:15 AM 32.0 °F 24.2 °F 24.8 °F 75% 30.09 in 10.0 mi West 9.2 mph - N/A   Partly Cloudy
11:35 AM 32.0 °F 24.8 °F 24.8 °F 75% 30.09 in 10.0 mi West 8.1 mph - N/A   Partly Cloudy
11:55 AM 33.8 °F 26.4 °F 26.6 °F 75% 30.07 in 10.0 mi WSW 9.2 mph - N/A   Partly Cloudy
12:15 PM 35.6 °F 29.2 °F 26.6 °F 70% 30.08 in 10.0 mi West 8.1 mph - N/A   Partly Cloudy
12:35 PM 37.4 °F 31.4 °F 26.6 °F 65% 30.07 in 10.0 mi West 8.1 mph - N/A   Clear
12:55 PM 39.2 °F 33.0 °F 28.4 °F 65% 30.07 in 10.0 mi West 9.2 mph - N/A   Clear
1:15 PM 39.2 °F 33.0 °F 28.4 °F 65% 30.06 in 10.0 mi West 9.2 mph - N/A   Clear
1:35 PM 41.0 °F 34.7 °F 28.4 °F 61% 30.06 in 10.0 mi WSW 10.4 mph - N/A   Clear
1:55 PM 42.8 °F 37.0 °F 28.4 °F 57% 30.06 in 10.0 mi WSW 10.4 mph - N/A   Clear
2:15 PM 42.8 °F 37.5 °F 28.4 °F 57% 30.05 in 10.0 mi SW 9.2 mph - N/A   Clear
2:35 PM 42.8 °F 38.0 °F 28.4 °F 57% 30.06 in 10.0 mi WSW 8.1 mph - N/A   Clear
2:55 PM 42.8 °F 36.6 °F 28.4 °F 57% 30.06 in 10.0 mi WSW 11.5 mph - N/A   Clear
3:15 PM 42.8 °F 37.0 °F 28.4 °F 57% 30.07 in 10.0 mi WSW 10.4 mph - N/A   Clear
3:35 PM 42.8 °F 36.6 °F 28.4 °F 57% 30.08 in 10.0 mi WSW 11.5 mph - N/A   Clear
3:55 PM 41.0 °F 35.2 °F 28.4 °F 61% 30.09 in 10.0 mi SW 9.2 mph - N/A   Clear
4:15 PM 41.0 °F 35.8 °F 28.4 °F 61% 30.10 in 10.0 mi SW 8.1 mph - N/A   Clear
4:35 PM 39.2 °F 34.2 °F 28.4 °F 65% 30.11 in 9.0 mi WSW 6.9 mph - N/A   Clear
4:55 PM 35.6 °F 29.2 °F 28.4 °F 75% 30.11 in 10.0 mi WSW 8.1 mph - N/A   Clear
5:15 PM 35.6 °F 28.6 °F 26.6 °F 70% 30.12 in 7.0 mi WSW 9.2 mph - N/A   Clear
5:35 PM 33.8 °F 26.4 °F 26.6 °F 75% 30.12 in 10.0 mi WSW 9.2 mph - N/A   Clear
5:55 PM 33.8 °F 26.4 °F 26.6 °F 75% 30.13 in 10.0 mi WSW 9.2 mph - N/A   Clear
6:15 PM 32.0 °F 25.6 °F 26.6 °F 80% 30.13 in 10.0 mi WSW 6.9 mph - N/A   Partly Cloudy
6:35 PM 32.0 °F - 24.8 °F 75% 30.14 in 10.0 mi Calm Calm - N/A   Partly Cloudy
6:55 PM 32.0 °F 26.4 °F 24.8 °F 75% 30.15 in 10.0 mi WSW 5.8 mph - N/A   Partly Cloudy
7:15 PM 30.2 °F 26.7 °F 24.8 °F 80% 30.15 in 10.0 mi SW 3.5 mph - N/A   Clear
7:35 PM 28.4 °F - 24.8 °F 86% 30.15 in 10.0 mi Calm Calm - N/A   Clear
7:55 PM 30.2 °F 25.4 °F 24.8 °F 80% 30.16 in 10.0 mi West 4.6 mph - N/A   Clear
8:15 PM 26.6 °F 18.2 °F 23.0 °F 86% 30.17 in 10.0 mi West 8.1 mph - N/A   Clear
8:35 PM 26.6 °F 15.7 °F 24.8 °F 93% 30.17 in 10.0 mi West 12.7 mph - N/A   Clear
8:55 PM 26.6 °F 18.2 °F 23.0 °F 86% 30.17 in 10.0 mi West 8.1 mph - N/A   Clear
9:15 PM 26.6 °F 17.5 °F 23.0 °F 86% 30.18 in 10.0 mi West 9.2 mph - N/A   Clear
9:35 PM 26.6 °F 16.8 °F 23.0 °F 86% 30.18 in 10.0 mi West 10.4 mph - N/A   Clear
9:55 PM 24.8 °F 16.9 °F 21.2 °F 86% 30.19 in 10.0 mi WNW 6.9 mph - N/A   Clear
10:15 PM 23.0 °F 13.1 °F 21.2 °F 93% 30.19 in 10.0 mi WNW 9.2 mph - N/A   Clear
10:35 PM 24.8 °F 16.1 °F 21.2 °F 86% 30.19 in 10.0 mi West 8.1 mph - N/A   Clear
10:55 PM 24.8 °F 16.1 °F 23.0 °F 93% 30.20 in 10.0 mi West 8.1 mph - N/A   Clear
11:15 PM 24.8 °F 16.9 °F 21.2 °F 86% 30.21 in 10.0 mi West 6.9 mph - N/A   Clear
11:35 PM 24.8 °F 16.9 °F 23.0 °F 93% 30.21 in 10.0 mi West 6.9 mph - N/A   Clear
11:55 PM 24.8 °F 16.9 °F 23.0 °F 93% 30.21 in 10.0 mi West 6.9 mph - N/A   Clear